Location: N�rnberg
(49.4471°N, 11.0632°E)
Time: 10:34:37
(UTC+01:00)

Envisat - Pass Details

Date: 26 February 2026
Orbit: 761 x 763 km, 98.4° (Epoch: 9 March)

Event Time Altitude Azimuth Distance (km) Brightness Sun altitude
Rises 02:52:26 0° 16° (NNE) 3,236 6.9 -39.5°
Reaches altitude 10° 02:54:46 10° 19° (NNE) 2,306 6.0 -39.2°
Enters shadow 02:56:03 18° 22° (NNE) 1,812 5.4 -39.1°
